QPF
0.11 0.09 0.09 0.09 0.11 0.13 0.19 0.17 0.15 0.13 0.15 0.15 0.12 0.10 0.06 0.03 0.01 0.00 0.00 0.00 0.00 0.00 0.01 0.00 0.00 0.00 0.00 0.00 0.00 0.00 0.00 0.00 0.01 0.01 0.01 0.01 0.00 0.00 0.01 0.01 0.02 0.03 0.04
0.11 0.10 0.09 0.10 0.10 0.10 0.10 0.11 0.13 0.15 0.15 0.17 0.12 0.08 0.05 0.02 0.01 0.00 0.00 0.00 0.00 0.00 0.00 0.00 0.00 0.00 0.00 0.00 0.00 0.00 0.00 0.00 0.00 0.01 0.01 0.01 0.01 0.01 0.00 0.01 0.01 0.02 0.04
0.08 0.09 0.07 0.09 0.08 0.09 0.10 0.10 0.12 0.14 0.17 0.18 0.11 0.06 0.04 0.02 0.02 0.01 0.01 0.00 0.00 0.00 0.00 0.00 0.00 0.00 0.00 0.00 0.00 0.00 0.00 0.00 0.00 0.00 0.00 0.01 0.02 0.02 0.01 0.00 0.00 0.01 0.02
0.06 0.07 0.07 0.08 0.07 0.08 0.10 0.12 0.12 0.12 0.12 0.12 0.10 0.06 0.03 0.02 0.02 0.01 0.01 0.00 0.00 0.00 0.00 0.00 0.00 0.00 0.00 0.00 0.00 0.00 0.00 0.00 0.00 0.00 0.00 0.00 0.01 0.01 0.01 0.01 0.00 0.00 0.01
0.02 0.03 0.06 0.07 0.06 0.06 0.08 0.11 0.13 0.10 0.10 0.09 0.08 0.06 0.04 0.03 0.01 0.01 0.01 0.00 0.00 0.00 0.00 0.00 0.00 0.00 0.00 0.00 0.00 0.00 0.00 0.00 0.00 0.00 0.00 0.00 0.00 0.00 0.00 0.01 0.00 0.00 0.00
0.02 0.04 0.05 0.07 0.07 0.06 0.06 0.10 0.12 0.10 0.09 0.08 0.06 0.04 0.04 0.03 0.03 0.02 0.01 0.01 0.00 0.00 0.00 0.00 0.00 0.00 0.00 0.00 0.00 0.00 0.00 0.00 0.00 0.00 0.00 0.00 0.00 0.00 0.00 0.00 0.00 0.00 0.00
0.01 0.02 0.03 0.04 0.05 0.05 0.05 0.08 0.09 0.08 0.07 0.06 0.05 0.04 0.03 0.02 0.02 0.02 0.01 0.00 0.00 0.00 0.00 0.00 0.00 0.00 0.00 0.00 0.00 0.00 0.00 0.00 0.00 0.00 0.00 0.00 0.00 0.00 0.00 0.00 0.00 0.00 0.00
0.00 0.01 0.02 0.04 0.03 0.02 0.03 0.04 0.06 0.06 0.06 0.05 0.04 0.03 0.02 0.01 0.01 0.02 0.01 0.00 0.00 0.00 0.00 0.00 0.00 0.00 0.00 0.00 0.00 0.00 0.00 0.00 0.00 0.00 0.00 0.00 0.00 0.00 0.00 0.00 0.00 0.00 0.00
0.00 0.01 0.01 0.03 0.02 0.02 0.02 0.02 0.04 0.04 0.04 0.04 0.03 0.02 0.02 0.01 0.01 0.01 0.01 0.00 0.00 0.00 0.00 0.00 0.00 0.00 0.00 0.00 0.00 0.00 0.00 0.00 0.00 0.00 0.00 0.00 0.00 0.00 0.00 0.00 0.00 0.00 0.00
0.00 0.00 0.00 0.00 0.01 0.01 0.02 0.03 0.03 0.03 0.03 0.03 0.02 0.01 0.01 0.01 0.01 0.01 0.01 0.00 0.00 0.00 0.00 0.00 0.00 0.00 0.00 0.00 0.00 0.00 0.00 0.00 0.00 0.00 0.00 0.00 0.00 0.00 0.00 0.00 0.00 0.00 0.00
0.00 0.00 0.00 0.00 0.01 0.01 0.01 0.02 0.02 0.02 0.01 0.01 0.01 0.01 0.01 0.01 0.01 0.00 0.00 0.01 0.00 0.00 0.00 0.00 0.00 0.00 0.00 0.00 0.00 0.00 0.00 0.00 0.00 0.00 0.00 0.00 0.00 0.00 0.00 0.00 0.00 0.00 0.00
0.00 0.00 0.01 0.02 0.02 0.01 0.01 0.01 0.01 0.00 0.00 0.01 0.01 0.01 0.01 0.01 0.01 0.00 0.00 0.00 0.00 0.00 0.00 0.00 0.00 0.00 0.00 0.00 0.00 0.00 0.00 0.00 0.00 0.00 0.00 0.00 0.00 0.00 0.00 0.00 0.00 0.00 0.00
0.00 0.00 0.01 0.04 0.03 0.01 0.00 0.01 0.01 0.01 0.00 0.00 0.01 0.01 0.01 0.01 0.01 0.01 0.01 0.00 0.00 0.00 0.00 0.00 0.00 0.00 0.00 0.00 0.00 0.00 0.00 0.00 0.00 0.00 0.00 0.00 0.00 0.00 0.00 0.00 0.00 0.00 0.00
0.00 0.00 0.01 0.01 0.01 0.00 0.01 0.01 0.02 0.05 0.02 0.01 0.01 0.01 0.01 0.01 0.01 0.01 0.01 0.01 0.00 0.00 0.00 0.00 0.00 0.00 0.00 0.00 0.00 0.00 0.00 0.00 0.00 0.00 0.00 0.00 0.00 0.00 0.00 0.00 0.00 0.00 0.00
0.00 0.01 0.01 0.02 0.02 0.02 0.01 0.01 0.01 0.02 0.02 0.02 0.02 0.04 0.03 0.03 0.03 0.03 0.02 0.02 0.02 0.01 0.01 0.01 0.01 0.00 0.00 0.00 0.00 0.00 0.00 0.00 0.00 0.00 0.00 0.00 0.00 0.00 0.00 0.00 0.00 0.01 0.01
0.01 0.01 0.01 0.02 0.02 0.02 0.02 0.01 0.02 0.02 0.02 0.03 0.03 0.04 0.04 0.04 0.05 0.06 0.05 0.05 0.04 0.03 0.02 0.01 0.01 0.01 0.01 0.01 0.01 0.00 0.00 0.00 0.00 0.01 0.01 0.01 0.00 0.00 0.00 0.00 0.00 0.00 0.00
0.01 0.01 0.01 0.01 0.01 0.01 0.01 0.01 0.01 0.01 0.01 0.03 0.04 0.04 0.04 0.05 0.06 0.06 0.06 0.06 0.05 0.04 0.03 0.02 0.01 0.01 0.01 0.01 0.01 0.01 0.00 0.00 0.00 0.01 0.01 0.01 0.00 0.01 0.01 0.01 0.01 0.01 0.00
0.01 0.01 0.00 0.01 0.01 0.01 0.01 0.01 0.01 0.01 0.03 0.04 0.05 0.06 0.07 0.07 0.08 0.07 0.06 0.06 0.05 0.04 0.03 0.02 0.02 0.02 0.01 0.01 0.01 0.01 0.01 0.00 0.00 0.00 0.01 0.01 0.01 0.01 0.02 0.02 0.02 0.02 0.02
0.01 0.01 0.01 0.01 0.01 0.02 0.03 0.03 0.04 0.05 0.07 0.08 0.09 0.09 0.09 0.09 0.08 0.07 0.06 0.06 0.06 0.06 0.06 0.05 0.03 0.03 0.03 0.02 0.02 0.01 0.01 0.01 0.01 0.01 0.01 0.02 0.02 0.02 0.02 0.03 0.03 0.03 0.03
0.01 0.01 0.01 0.01 0.03 0.04 0.05 0.05 0.06 0.06 0.06 0.07 0.07 0.06 0.06 0.06 0.05 0.04 0.04 0.04 0.04 0.04 0.05 0.05 0.05 0.05 0.04 0.03 0.03 0.03 0.02 0.01 0.02 0.02 0.02 0.02 0.02 0.02 0.02 0.03 0.03 0.03 0.03
0.01 0.01 0.01 0.01 0.02 0.02 0.03 0.04 0.05 0.06 0.06 0.05 0.05 0.04 0.04 0.04 0.03 0.03 0.03 0.03 0.02 0.02 0.02 0.02 0.03 0.03 0.03 0.04 0.03 0.02 0.02 0.02 0.01 0.01 0.01 0.02 0.03 0.02 0.01 0.02 0.03 0.03 0.03
0.01 0.01 0.01 0.01 0.01 0.01 0.02 0.02 0.02 0.02 0.02 0.02 0.02 0.02 0.02 0.03 0.02 0.02 0.02 0.02 0.02 0.02 0.02 0.02 0.02 0.02 0.02 0.02 0.02 0.02 0.02 0.01 0.01 0.01 0.00 0.01 0.02 0.01 0.01 0.01 0.01 0.01 0.02
0.01 0.01 0.01 0.01 0.01 0.01 0.01 0.01 0.01 0.01 0.01 0.01 0.01 0.02 0.01 0.01 0.01 0.02 0.02 0.02 0.02 0.01 0.01 0.01 0.01 0.01 0.01 0.02 0.01 0.01 0.02 0.01 0.01 0.00 0.00 0.00 0.01 0.01 0.01 0.01 0.01 0.02 0.02
0.01 0.01 0.01 0.02 0.02 0.02 0.02 0.02 0.02 0.02 0.01 0.01 0.01 0.01 0.01 0.01 0.01 0.00 0.00 0.00 0.00 0.00 0.00 0.01 0.01 0.01 0.02 0.01 0.01 0.01 0.01 0.01 0.00 0.00 0.00 0.00 0.00 0.00 0.00 0.01 0.01 0.01 0.02
0.00 0.00 0.00 0.00 0.00 0.01 0.01 0.01 0.01 0.00 0.00 0.00 0.00 0.00 0.00 0.00 0.00 0.00 0.00 0.00 0.00 0.00 0.00 0.00 0.00 0.00 0.00 0.00 0.00 0.00 0.00 0.00 0.00 0.00 0.00 0.00 0.00 0.00 0.00 0.01 0.01 0.02 0.03
0.00 0.00 0.00 0.00 0.00 0.00 0.00 0.00 0.00 0.00 0.00 0.00 0.00 0.00 0.00 0.00 0.00 0.00 0.00 0.00 0.00 0.00 0.00 0.00 0.00 0.00 0.00 0.00 0.00 0.00 0.00 0.00 0.00 0.00 0.00 0.00 0.00 0.01 0.01 0.01 0.01 0.02 0.04
MSLP
1008.56 1009.28 1009.94 1010.51 1011.01 1011.46 1011.91 1012.38 1012.91 1013.48 1014.09 1014.69 1015.25 1015.74 1016.13 1016.43 1016.64 1016.79 1016.90 1017.01 1017.12 1017.25 1017.39 1017.52 1017.64 1017.73 1017.79 1017.84 1017.87 1017.92 1017.99 1018.10 1018.22 1018.36 1018.49 1018.58 1018.63 1018.61 1018.54 1018.42 1018.29 1018.17 1018.10
1008.71 1009.48 1010.17 1010.73 1011.19 1011.58 1011.95 1012.36 1012.85 1013.42 1014.04 1014.69 1015.29 1015.82 1016.24 1016.53 1016.71 1016.82 1016.90 1016.98 1017.09 1017.25 1017.45 1017.66 1017.87 1018.04 1018.16 1018.24 1018.28 1018.30 1018.32 1018.38 1018.46 1018.57 1018.70 1018.80 1018.87 1018.88 1018.83 1018.71 1018.56 1018.40 1018.27
1008.83 1009.66 1010.36 1010.91 1011.33 1011.64 1011.93 1012.27 1012.70 1013.23 1013.86 1014.53 1015.18 1015.74 1016.19 1016.50 1016.67 1016.76 1016.82 1016.89 1017.01 1017.19 1017.44 1017.73 1018.01 1018.25 1018.43 1018.53 1018.57 1018.58 1018.57 1018.59 1018.64 1018.73 1018.85 1018.98 1019.08 1019.12 1019.10 1019.00 1018.85 1018.67 1018.50
1008.94 1009.81 1010.53 1011.08 1011.44 1011.69 1011.90 1012.15 1012.51 1012.99 1013.60 1014.27 1014.94 1015.55 1016.02 1016.35 1016.55 1016.64 1016.69 1016.76 1016.88 1017.09 1017.37 1017.70 1018.03 1018.33 1018.55 1018.69 1018.74 1018.75 1018.73 1018.72 1018.75 1018.84 1018.97 1019.11 1019.24 1019.33 1019.34 1019.27 1019.13 1018.94 1018.75
1009.04 1009.96 1010.71 1011.26 1011.59 1011.78 1011.91 1012.08 1012.35 1012.78 1013.34 1014.00 1014.67 1015.29 1015.80 1016.16 1016.37 1016.48 1016.54 1016.60 1016.73 1016.94 1017.24 1017.59 1017.96 1018.29 1018.55 1018.71 1018.79 1018.80 1018.79 1018.78 1018.82 1018.91 1019.05 1019.21 1019.37 1019.49 1019.53 1019.49 1019.37 1019.19 1018.98
1009.16 1010.12 1010.92 1011.48 1011.80 1011.95 1012.02 1012.10 1012.30 1012.65 1013.15 1013.77 1014.43 1015.05 1015.57 1015.95 1016.18 1016.30 1016.37 1016.44 1016.57 1016.77 1017.07 1017.42 1017.80 1018.15 1018.43 1018.62 1018.73 1018.77 1018.78 1018.79 1018.84 1018.94 1019.10 1019.28 1019.45 1019.59 1019.67 1019.65 1019.55 1019.38 1019.16
1009.26 1010.28 1011.13 1011.71 1012.04 1012.17 1012.20 1012.23 1012.35 1012.63 1013.07 1013.63 1014.25 1014.85 1015.36 1015.75 1015.99 1016.13 1016.20 1016.27 1016.38 1016.58 1016.85 1017.20 1017.57 1017.93 1018.23 1018.45 1018.60 1018.67 1018.72 1018.76 1018.84 1018.96 1019.12 1019.31 1019.49 1019.64 1019.72 1019.73 1019.64 1019.48 1019.28
1009.31 1010.38 1011.27 1011.89 1012.25 1012.38 1012.39 1012.39 1012.46 1012.68 1013.05 1013.55 1014.12 1014.68 1015.17 1015.54 1015.79 1015.93 1016.00 1016.07 1016.17 1016.35 1016.61 1016.94 1017.30 1017.66 1017.97 1018.23 1018.41 1018.53 1018.62 1018.70 1018.80 1018.94 1019.11 1019.29 1019.47 1019.61 1019.70 1019.71 1019.63 1019.49 1019.30
1009.23 1010.33 1011.25 1011.91 1012.29 1012.45 1012.48 1012.48 1012.54 1012.72 1013.04 1013.48 1013.99 1014.50 1014.95 1015.30 1015.53 1015.67 1015.75 1015.81 1015.91 1016.08 1016.33 1016.64 1016.99 1017.35 1017.68 1017.96 1018.18 1018.35 1018.48 1018.60 1018.72 1018.87 1019.03 1019.21 1019.37 1019.49 1019.57 1019.58 1019.52 1019.40 1019.24
1008.96 1010.06 1010.98 1011.65 1012.07 1012.27 1012.34 1012.38 1012.45 1012.63 1012.93 1013.33 1013.79 1014.25 1014.65 1014.97 1015.18 1015.31 1015.39 1015.47 1015.58 1015.75 1015.99 1016.30 1016.65 1017.01 1017.35 1017.66 1017.91 1018.11 1018.27 1018.42 1018.56 1018.71 1018.87 1019.02 1019.15 1019.26 1019.32 1019.33 1019.28 1019.19 1019.07
1008.47 1009.51 1010.39 1011.05 1011.49 1011.75 1011.88 1011.98 1012.11 1012.33 1012.63 1013.02 1013.44 1013.85 1014.22 1014.50 1014.69 1014.82 1014.91 1015.00 1015.13 1015.32 1015.58 1015.90 1016.26 1016.63 1016.98 1017.29 1017.56 1017.79 1017.97 1018.13 1018.28 1018.42 1018.56 1018.69 1018.80 1018.88 1018.93 1018.94 1018.92 1018.87 1018.79
1007.82 1008.74 1009.54 1010.16 1010.60 1010.90 1011.11 1011.29 1011.51 1011.78 1012.12 1012.52 1012.92 1013.30 1013.63 1013.88 1014.06 1014.19 1014.29 1014.41 1014.58 1014.80 1015.09 1015.43 1015.80 1016.18 1016.53 1016.85 1017.13 1017.35 1017.54 1017.70 1017.84 1017.97 1018.09 1018.20 1018.29 1018.35 1018.40 1018.42 1018.43 1018.42 1018.40
1007.11 1007.88 1008.55 1009.09 1009.51 1009.84 1010.12 1010.39 1010.70 1011.05 1011.45 1011.87 1012.27 1012.63 1012.93 1013.16 1013.32 1013.45 1013.58 1013.73 1013.94 1014.21 1014.53 1014.90 1015.28 1015.66 1016.01 1016.32 1016.58 1016.79 1016.97 1017.11 1017.24 1017.35 1017.46 1017.55 1017.63 1017.69 1017.74 1017.78 1017.82 1017.86 1017.89
1006.53 1007.11 1007.62 1008.06 1008.42 1008.76 1009.09 1009.44 1009.84 1010.28 1010.73 1011.18 1011.59 1011.93 1012.20 1012.40 1012.56 1012.69 1012.84 1013.03 1013.27 1013.58 1013.94 1014.33 1014.72 1015.09 1015.42 1015.70 1015.93 1016.11 1016.26 1016.38 1016.49 1016.59 1016.69 1016.78 1016.86 1016.93 1016.99 1017.06 1017.12 1017.20 1017.28
1006.24 1006.63 1006.97 1007.28 1007.57 1007.88 1008.24 1008.65 1009.12 1009.62 1010.12 1010.59 1011.00 1011.32 1011.57 1011.74 1011.88 1012.01 1012.17 1012.38 1012.66 1012.99 1013.37 1013.77 1014.15 1014.50 1014.80 1015.04 1015.22 1015.36 1015.47 1015.57 1015.66 1015.76 1015.86 1015.95 1016.04 1016.12 1016.20 1016.29 1016.38 1016.48 1016.59
1006.38 1006.60 1006.77 1006.94 1007.15 1007.41 1007.77 1008.20 1008.71 1009.24 1009.77 1010.24 1010.63 1010.93 1011.14 1011.28 1011.39 1011.51 1011.66 1011.88 1012.17 1012.52 1012.90 1013.29 1013.65 1013.96 1014.21 1014.39 1014.52 1014.61 1014.69 1014.76 1014.84 1014.94 1015.04 1015.15 1015.26 1015.36 1015.45 1015.54 1015.64 1015.74 1015.85
1006.99 1007.06 1007.10 1007.15 1007.26 1007.46 1007.78 1008.21 1008.72 1009.26 1009.78 1010.23 1010.59 1010.85 1011.02 1011.11 1011.18 1011.27 1011.41 1011.62 1011.90 1012.23 1012.59 1012.95 1013.27 1013.53 1013.72 1013.84 1013.92 1013.97 1014.01 1014.06 1014.14 1014.24 1014.36 1014.48 1014.61 1014.72 1014.81 1014.89 1014.96 1015.03 1015.12
1007.99 1007.98 1007.91 1007.86 1007.89 1008.03 1008.31 1008.70 1009.18 1009.69 1010.18 1010.59 1010.91 1011.12 1011.23 1011.28 1011.31 1011.36 1011.46 1011.64 1011.88 1012.18 1012.50 1012.81 1013.08 1013.28 1013.41 1013.48 1013.50 1013.51 1013.52 1013.56 1013.64 1013.74 1013.88 1014.01 1014.14 1014.25 1014.32 1014.36 1014.39 1014.40 1014.41
1009.21 1009.16 1009.04 1008.94 1008.91 1008.99 1009.22 1009.56 1010.00 1010.46 1010.90 1011.27 1011.54 1011.70 1011.76 1011.76 1011.74 1011.74 1011.80 1011.93 1012.13 1012.37 1012.64 1012.89 1013.09 1013.23 1013.31 1013.33 1013.32 1013.29 1013.29 1013.32 1013.39 1013.50 1013.63 1013.77 1013.88 1013.96 1013.99 1013.98 1013.92 1013.85 1013.77
1010.43 1010.39 1010.28 1010.15 1010.09 1010.15 1010.33 1010.63 1011.02 1011.44 1011.83 1012.15 1012.37 1012.48 1012.50 1012.45 1012.39 1012.35 1012.36 1012.43 1012.57 1012.76 1012.96 1013.15 1013.30 1013.39 1013.42 1013.41 1013.36 1013.32 1013.30 1013.32 1013.38 1013.48 1013.60 1013.71 1013.79 1013.82 1013.78 1013.68 1013.54 1013.35 1013.16
1011.45 1011.47 1011.39 1011.29 1011.24 1011.28 1011.45 1011.72 1012.07 1012.45 1012.80 1013.09 1013.27 1013.35 1013.33 1013.25 1013.15 1013.06 1013.02 1013.04 1013.12 1013.25 1013.40 1013.53 1013.63 1013.69 1013.69 1013.66 1013.60 1013.54 1013.51 1013.51 1013.55 1013.62 1013.70 1013.76 1013.78 1013.73 1013.61 1013.42 1013.16 1012.86 1012.55
1012.15 1012.25 1012.24 1012.20 1012.18 1012.25 1012.42 1012.68 1013.02 1013.37 1013.70 1013.95 1014.11 1014.17 1014.13 1014.03 1013.89 1013.77 1013.69 1013.66 1013.68 1013.75 1013.85 1013.94 1014.01 1014.05 1014.04 1014.00 1013.93 1013.87 1013.82 1013.79 1013.79 1013.81 1013.82 1013.80 1013.73 1013.60 1013.38 1013.08 1012.72 1012.32 1011.90
1012.52 1012.71 1012.78 1012.81 1012.85 1012.96 1013.16 1013.43 1013.76 1014.11 1014.42 1014.66 1014.81 1014.85 1014.80 1014.68 1014.52 1014.37 1014.24 1014.17 1014.15 1014.17 1014.23 1014.30 1014.35 1014.38 1014.37 1014.33 1014.27 1014.19 1014.12 1014.05 1013.99 1013.93 1013.85 1013.73 1013.56 1013.32 1013.00 1012.61 1012.15 1011.66 1011.16
1012.64 1012.90 1013.06 1013.16 1013.27 1013.43 1013.66 1013.96 1014.30 1014.64 1014.94 1015.18 1015.31 1015.35 1015.28 1015.14 1014.96 1014.78 1014.62 1014.51 1014.45 1014.45 1014.48 1014.53 1014.58 1014.61 1014.62 1014.59 1014.52 1014.43 1014.33 1014.20 1014.06 1013.90 1013.71 1013.48 1013.19 1012.84 1012.43 1011.95 1011.43 1010.88 1010.32
1012.65 1012.97 1013.19 1013.36 1013.53 1013.74 1014.00 1014.31 1014.65 1014.99 1015.28 1015.50 1015.62 1015.64 1015.56 1015.40 1015.20 1014.99 1014.81 1014.67 1014.58 1014.56 1014.58 1014.63 1014.68 1014.73 1014.74 1014.72 1014.66 1014.54 1014.39 1014.20 1013.96 1013.69 1013.38 1013.03 1012.63 1012.18 1011.68 1011.14 1010.57 1009.99 1009.41
1012.72 1013.06 1013.31 1013.52 1013.73 1013.97 1014.24 1014.56 1014.89 1015.20 1015.47 1015.66 1015.76 1015.75 1015.65 1015.48 1015.26 1015.03 1014.83 1014.67 1014.57 1014.54 1014.56 1014.61 1014.68 1014.74 1014.77 1014.75 1014.67 1014.53 1014.32 1014.05 1013.72 1013.34 1012.91 1012.44 1011.93 1011.40 1010.84 1010.26 1009.67 1009.08 1008.51
Thickness
5747 5745 5744 5743 5740 5738 5736 5736 5736 5735 5736 5735 5734 5734 5733 5736 5737 5736 5735 5734 5733 5733 5733 5734 5733 5733 5732 5731 5731 5728 5728 5727 5728 5725 5724 5726 5729 5728 5727 5726 5725 5724 5723
5746 5743 5741 5739 5737 5735 5734 5734 5734 5734 5734 5734 5735 5735 5734 5736 5737 5736 5733 5733 5732 5732 5733 5732 5732 5731 5730 5729 5729 5728 5725 5727 5727 5723 5719 5717 5718 5722 5727 5724 5723 5722 5721
5746 5742 5740 5738 5736 5734 5734 5735 5733 5733 5733 5733 5734 5734 5733 5734 5733 5732 5732 5732 5732 5731 5730 5731 5731 5730 5731 5727 5727 5726 5724 5723 5725 5725 5719 5713 5711 5714 5719 5721 5720 5719 5718
5752 5745 5742 5739 5738 5736 5736 5735 5734 5733 5732 5733 5733 5731 5729 5729 5731 5732 5732 5732 5731 5730 5730 5729 5729 5729 5729 5727 5727 5725 5725 5722 5721 5722 5722 5719 5715 5710 5709 5714 5717 5718 5716
5756 5749 5746 5743 5742 5740 5738 5736 5734 5733 5733 5733 5734 5732 5731 5732 5734 5734 5732 5731 5731 5730 5730 5728 5728 5727 5727 5726 5725 5724 5723 5722 5720 5720 5720 5718 5718 5716 5710 5706 5710 5713 5715
5761 5755 5751 5747 5744 5743 5741 5739 5735 5733 5733 5733 5734 5732 5732 5732 5732 5732 5730 5730 5731 5730 5729 5728 5727 5727 5726 5725 5723 5722 5721 5719 5718 5717 5717 5715 5713 5711 5710 5707 5706 5707 5711
5764 5758 5752 5748 5745 5744 5742 5740 5736 5733 5734 5734 5734 5733 5733 5733 5732 5732 5732 5731 5732 5731 5730 5730 5727 5726 5725 5723 5722 5720 5719 5718 5716 5714 5714 5714 5713 5712 5710 5705 5703 5704 5707
5769 5763 5758 5753 5749 5747 5745 5742 5738 5735 5735 5734 5734 5734 5733 5733 5733 5733 5734 5733 5734 5735 5733 5730 5727 5725 5724 5723 5720 5719 5718 5716 5714 5713 5711 5709 5710 5710 5708 5704 5700 5696 5699
5773 5768 5763 5759 5755 5752 5749 5746 5742 5738 5737 5736 5735 5734 5733 5733 5734 5735 5735 5735 5735 5735 5733 5730 5727 5725 5723 5721 5719 5716 5716 5715 5712 5711 5709 5706 5707 5707 5706 5704 5701 5693 5688
5777 5773 5768 5764 5760 5757 5753 5750 5746 5742 5740 5739 5737 5736 5735 5735 5735 5735 5735 5735 5735 5735 5732 5729 5726 5724 5722 5719 5716 5715 5714 5712 5710 5708 5705 5704 5704 5704 5703 5701 5699 5696 5689
5781 5777 5772 5769 5765 5761 5756 5752 5749 5745 5742 5741 5739 5739 5737 5737 5736 5734 5734 5734 5733 5732 5730 5728 5725 5722 5720 5717 5714 5712 5712 5709 5707 5705 5703 5701 5699 5698 5697 5697 5695 5692 5689
5785 5781 5776 5771 5766 5763 5760 5755 5752 5748 5746 5744 5742 5740 5739 5738 5736 5735 5734 5733 5731 5730 5728 5726 5723 5721 5718 5716 5713 5709 5709 5706 5704 5702 5700 5698 5697 5694 5692 5690 5689 5688 5687
5785 5782 5777 5772 5768 5766 5763 5759 5755 5752 5750 5747 5744 5742 5739 5738 5736 5736 5734 5732 5730 5728 5727 5724 5721 5718 5717 5714 5711 5708 5706 5704 5702 5700 5697 5695 5692 5690 5688 5687 5685 5684 5684
5780 5777 5773 5770 5769 5767 5763 5760 5757 5753 5751 5748 5745 5742 5740 5738 5737 5735 5733 5731 5729 5726 5724 5722 5719 5717 5714 5712 5709 5706 5703 5701 5699 5697 5695 5693 5690 5687 5685 5683 5681 5679 5677
5774 5771 5767 5764 5763 5762 5761 5760 5756 5754 5752 5747 5744 5740 5739 5738 5736 5733 5731 5729 5727 5724 5721 5719 5716 5714 5711 5709 5707 5703 5701 5698 5695 5694 5692 5690 5688 5686 5683 5680 5678 5675 5672
5767 5767 5765 5762 5759 5758 5757 5756 5754 5752 5750 5746 5742 5740 5738 5735 5731 5729 5727 5724 5722 5719 5717 5714 5712 5709 5708 5706 5703 5700 5697 5695 5692 5690 5688 5686 5684 5682 5679 5677 5674 5670 5667
5758 5758 5757 5756 5754 5754 5753 5750 5749 5747 5743 5739 5736 5734 5732 5729 5725 5724 5720 5716 5714 5711 5709 5707 5706 5704 5702 5699 5695 5692 5690 5688 5687 5685 5682 5681 5682 5679 5677 5673 5669 5666 5663
5748 5747 5747 5746 5745 5745 5743 5741 5739 5735 5732 5728 5725 5723 5722 5718 5714 5711 5709 5706 5704 5702 5700 5698 5696 5695 5693 5689 5686 5683 5680 5679 5678 5677 5675 5673 5672 5671 5668 5666 5665 5664 5662
5738 5737 5736 5734 5732 5730 5729 5727 5723 5720 5716 5713 5711 5709 5706 5704 5701 5698 5696 5694 5692 5690 5688 5687 5686 5684 5681 5679 5675 5671 5669 5668 5668 5667 5666 5664 5663 5662 5658 5656 5655 5655 5657
5727 5724 5722 5720 5717 5715 5715 5712 5707 5703 5699 5697 5696 5694 5692 5689 5687 5685 5683 5681 5679 5678 5677 5675 5674 5672 5670 5667 5664 5660 5658 5657 5656 5656 5656 5654 5652 5650 5646 5644 5644 5643 5645
5714 5712 5708 5704 5701 5700 5699 5694 5691 5686 5684 5683 5681 5679 5678 5676 5674 5672 5670 5668 5666 5664 5663 5663 5662 5661 5659 5656 5653 5649 5646 5644 5643 5642 5642 5640 5636 5634 5631 5628 5628 5630 5629
5702 5698 5694 5690 5688 5687 5684 5680 5675 5673 5672 5670 5667 5666 5664 5663 5661 5658 5657 5656 5654 5653 5652 5651 5650 5649 5647 5643 5640 5636 5632 5629 5626 5626 5626 5625 5621 5618 5615 5614 5615 5614 5612
5690 5687 5682 5678 5675 5673 5671 5666 5663 5661 5659 5656 5654 5652 5651 5649 5648 5646 5645 5644 5643 5641 5639 5637 5635 5633 5632 5628 5624 5620 5616 5612 5610 5610 5609 5606 5603 5601 5602 5602 5601 5599 5597
5679 5676 5671 5666 5662 5660 5658 5655 5652 5650 5647 5644 5642 5642 5640 5639 5638 5636 5635 5633 5630 5627 5624 5620 5618 5616 5614 5610 5605 5601 5598 5596 5594 5593 5591 5588 5587 5586 5586 5587 5587 5586 5585
5669 5665 5659 5655 5651 5648 5646 5644 5641 5638 5635 5633 5632 5631 5630 5629 5626 5625 5623 5621 5618 5614 5609 5606 5603 5600 5597 5590 5583 5580 5579 5575 5572 5569 5570 5571 5571 5572 5573 5573 5573 5572 5571
5657 5653 5649 5644 5640 5637 5634 5631 5629 5626 5623 5621 5619 5619 5618 5616 5615 5613 5611 5609 5605 5601 5597 5592 5587 5584 5577 5572 5568 5563 5559 5556 5552 5548 5552 5554 5553 5553 5553 5553 5553 5553 5552